Time,TemperatureF,DewpointF,PressureIn,WindDirection,WindDirectionDegrees,WindSpeedMPH,WindSpeedGustMPH,Humidity,HourlyPrecipIn,Conditions,Clouds,dailyrainin,SoftwareType,DateUTC
2013-10-02 00:09:00,60.9,60.0,30.11,SE,137,0.0,0.0,95,0.00,,,0.00,weatherlink.com 1.10,2013-10-02 04:09:00,
2013-10-02 00:24:00,60.5,59.0,30.11,SE,138,0.0,0.0,95,0.00,,,0.00,weatherlink.com 1.10,2013-10-02 04:24:00,
2013-10-02 00:39:00,60.3,59.0,30.11,SE,137,0.0,0.0,96,0.00,,,0.00,weatherlink.com 1.10,2013-10-02 04:39:00,
2013-10-02 00:54:00,60.2,59.0,30.10,SE,138,0.0,0.0,96,0.00,,,0.00,weatherlink.com 1.10,2013-10-02 04:54:00,
2013-10-02 01:09:00,60.3,59.0,30.10,SE,138,0.0,0.0,96,0.00,,,0.00,weatherlink.com 1.10,2013-10-02 05:09:00,
2013-10-02 01:24:00,60.1,59.0,30.11,SE,138,0.0,0.0,96,0.00,,,0.00,weatherlink.com 1.10,2013-10-02 05:24:00,
2013-10-02 01:39:00,60.0,59.0,30.11,SE,138,0.0,0.0,97,0.00,,,0.00,weatherlink.com 1.10,2013-10-02 05:39:00,
2013-10-02 01:54:00,59.8,59.0,30.10,SE,138,0.0,0.0,97,0.00,,,0.00,weatherlink.com 1.10,2013-10-02 05:54:00,
2013-10-02 02:09:00,59.6,59.0,30.10,SE,137,0.0,0.0,97,0.00,,,0.00,weatherlink.com 1.10,2013-10-02 06:09:00,
2013-10-02 02:24:00,59.5,59.0,30.10,SE,138,0.0,0.0,97,0.00,,,0.00,weatherlink.com 1.10,2013-10-02 06:24:00,
2013-10-02 02:39:00,59.3,59.0,30.10,SE,137,0.0,0.0,97,0.00,,,0.00,weatherlink.com 1.10,2013-10-02 06:39:00,
2013-10-02 02:54:00,59.3,59.0,30.10,SE,138,0.0,0.0,97,0.00,,,0.00,weatherlink.com 1.10,2013-10-02 06:54:00,
2013-10-02 03:09:00,59.1,58.0,30.09,SE,138,0.0,0.0,97,0.00,,,0.00,weatherlink.com 1.10,2013-10-02 07:09:00,
2013-10-02 03:24:00,59.0,58.0,30.09,SE,138,0.0,0.0,97,0.00,,,0.00,weatherlink.com 1.10,2013-10-02 07:24:00,
2013-10-02 03:39:00,58.7,58.0,30.08,SE,138,0.0,0.0,97,0.00,,,0.00,weatherlink.com 1.10,2013-10-02 07:39:00,
2013-10-02 03:54:00,59.0,58.0,30.08,SE,138,0.0,0.0,97,0.00,,,0.00,weatherlink.com 1.10,2013-10-02 07:54:00,
2013-10-02 04:09:00,59.0,58.0,30.08,SE,138,0.0,0.0,97,0.00,,,0.00,weatherlink.com 1.10,2013-10-02 08:09:00,
2013-10-02 04:24:00,58.9,58.0,30.08,SE,138,0.0,0.0,98,0.00,,,0.00,weatherlink.com 1.10,2013-10-02 08:24:00,
2013-10-02 04:39:00,58.7,58.0,30.08,SE,138,0.0,0.0,97,0.00,,,0.00,weatherlink.com 1.10,2013-10-02 08:39:00,
2013-10-02 04:54:00,58.6,58.0,30.08,SE,138,0.0,0.0,98,0.00,,,0.00,weatherlink.com 1.10,2013-10-02 08:54:00,
2013-10-02 05:09:00,58.3,58.0,30.09,SE,138,0.0,0.0,98,0.00,,,0.00,weatherlink.com 1.10,2013-10-02 09:09:00,
2013-10-02 05:24:00,58.4,58.0,30.09,SE,138,0.0,0.0,98,0.00,,,0.00,weatherlink.com 1.10,2013-10-02 09:24:00,
2013-10-02 05:39:00,58.4,58.0,30.09,SE,137,0.0,0.0,98,0.00,,,0.00,weatherlink.com 1.10,2013-10-02 09:39:00,
2013-10-02 05:54:00,58.5,58.0,30.10,SE,137,0.0,0.0,98,0.00,,,0.00,weatherlink.com 1.10,2013-10-02 09:54:00,
2013-10-02 06:09:00,58.3,58.0,30.10,SE,138,0.0,0.0,98,0.00,,,0.00,weatherlink.com 1.10,2013-10-02 10:09:00,
2013-10-02 06:24:00,58.1,58.0,30.10,SE,137,0.0,0.0,98,0.00,,,0.00,weatherlink.com 1.10,2013-10-02 10:24:00,
2013-10-02 06:39:00,57.7,57.0,30.11,SE,138,0.0,0.0,98,0.00,,,0.00,weatherlink.com 1.10,2013-10-02 10:39:00,
2013-10-02 06:54:00,57.8,57.0,30.11,SE,137,0.0,0.0,98,0.00,,,0.00,weatherlink.com 1.10,2013-10-02 10:54:00,
2013-10-02 07:10:00,57.7,57.0,30.11,SE,137,0.0,0.0,98,0.00,,,0.00,weatherlink.com 1.10,2013-10-02 11:10:00,
2013-10-02 07:25:00,57.6,57.0,30.11,SE,138,0.0,0.0,98,0.00,,,0.00,weatherlink.com 1.10,2013-10-02 11:25:00,
2013-10-02 07:40:00,57.6,57.0,30.12,SE,138,0.0,0.0,98,0.00,,,0.00,weatherlink.com 1.10,2013-10-02 11:40:00,
2013-10-02 07:55:00,58.3,58.0,30.12,SE,137,0.0,0.0,98,0.00,,,0.00,weatherlink.com 1.10,2013-10-02 11:55:00,
2013-10-02 08:10:00,59.8,59.0,30.12,SE,138,0.0,0.0,98,0.00,,,0.00,weatherlink.com 1.10,2013-10-02 12:10:00,
2013-10-02 08:25:00,61.6,61.0,30.13,WNW,295,0.0,1.0,98,0.00,,,0.00,weatherlink.com 1.10,2013-10-02 12:25:00,
2013-10-02 08:40:00,63.3,63.0,30.13,NNW,345,0.0,2.0,98,0.00,,,0.00,weatherlink.com 1.10,2013-10-02 12:40:00,
2013-10-02 08:55:00,65.5,63.0,30.13,NW,317,0.0,2.0,92,0.00,,,0.00,weatherlink.com 1.10,2013-10-02 12:55:00,
2013-10-02 09:10:00,67.9,63.0,30.14,NNW,333,1.0,5.0,84,0.00,,,0.00,weatherlink.com 1.10,2013-10-02 13:10:00,
2013-10-02 09:25:00,69.2,63.0,30.14,NW,324,2.0,5.0,80,0.00,,,0.00,weatherlink.com 1.10,2013-10-02 13:25:00,
2013-10-02 09:40:00,70.2,63.0,30.14,NW,312,1.0,4.0,77,0.00,,,0.00,weatherlink.com 1.10,2013-10-02 13:40:00,
2013-10-02 09:55:00,71.6,63.0,30.14,NNW,337,1.0,5.0,75,0.00,,,0.00,weatherlink.com 1.10,2013-10-02 13:55:00,
2013-10-02 10:10:00,73.4,64.0,30.14,NW,322,3.0,6.0,72,0.00,,,0.00,weatherlink.com 1.10,2013-10-02 14:10:00,
2013-10-02 10:25:00,74.6,65.0,30.14,North,353,2.0,4.0,72,0.00,,,0.00,weatherlink.com 1.10,2013-10-02 14:25:00,
2013-10-02 10:40:00,76.0,64.0,30.14,ENE,65,5.0,7.0,67,0.00,,,0.00,weatherlink.com 1.10,2013-10-02 14:40:00,
2013-10-02 10:55:00,77.5,64.0,30.14,NE,47,3.0,6.0,63,0.00,,,0.00,weatherlink.com 1.10,2013-10-02 14:55:00,
2013-10-02 11:10:00,78.3,65.0,30.13,NW,305,4.0,8.0,64,0.00,,,0.00,weatherlink.com 1.10,2013-10-02 15:10:00,
2013-10-02 11:25:00,79.4,65.0,30.13,NW,319,5.0,8.0,62,0.00,,,0.00,weatherlink.com 1.10,2013-10-02 15:25:00,
2013-10-02 11:40:00,79.4,66.0,30.13,North,357,8.0,8.0,63,0.00,,,0.00,weatherlink.com 1.10,2013-10-02 15:40:00,
2013-10-02 11:55:00,80.2,65.0,30.12,NW,306,4.0,7.0,60,0.00,,,0.00,weatherlink.com 1.10,2013-10-02 15:55:00,
2013-10-02 12:11:00,81.1,66.0,30.12,NNW,337,2.0,6.0,60,0.00,,,0.00,weatherlink.com 1.10,2013-10-02 16:11:00,
2013-10-02 12:26:00,81.5,65.0,30.11,ENE,73,4.0,6.0,58,0.00,,,0.00,weatherlink.com 1.10,2013-10-02 16:26:00,
2013-10-02 12:41:00,81.8,66.0,30.11,NNW,335,2.0,8.0,59,0.00,,,0.00,weatherlink.com 1.10,2013-10-02 16:41:00,
2013-10-02 12:56:00,82.5,65.0,30.10,ESE,106,2.0,6.0,55,0.00,,,0.00,weatherlink.com 1.10,2013-10-02 16:56:00,
2013-10-02 13:11:00,83.2,65.0,30.10,North,2,3.0,6.0,54,0.00,,,0.00,weatherlink.com 1.10,2013-10-02 17:11:00,
2013-10-02 13:26:00,83.4,64.0,30.09,East,94,5.0,6.0,52,0.00,,,0.00,weatherlink.com 1.10,2013-10-02 17:26:00,
2013-10-02 13:41:00,84.6,64.0,30.08,NNW,343,2.0,6.0,51,0.00,,,0.00,weatherlink.com 1.10,2013-10-02 17:41:00,
2013-10-02 13:56:00,84.4,65.0,30.08,NW,324,3.0,6.0,53,0.00,,,0.00,weatherlink.com 1.10,2013-10-02 17:56:00,
2013-10-02 14:11:00,84.6,66.0,30.07,SW,233,2.0,4.0,54,0.00,,,0.00,weatherlink.com 1.10,2013-10-02 18:11:00,
2013-10-02 14:26:00,82.7,66.0,30.07,SE,134,1.0,3.0,57,0.00,,,0.00,weatherlink.com 1.10,2013-10-02 18:26:00,
2013-10-02 14:41:00,83.9,66.0,30.07,SW,232,1.0,7.0,56,0.00,,,0.00,weatherlink.com 1.10,2013-10-02 18:41:00,
2013-10-02 14:56:00,84.4,66.0,30.06,SE,146,4.0,7.0,54,0.00,,,0.00,weatherlink.com 1.10,2013-10-02 18:56:00,
2013-10-02 15:11:00,83.9,66.0,30.06,ESE,107,0.0,8.0,55,0.00,,,0.00,weatherlink.com 1.10,2013-10-02 19:11:00,
2013-10-02 15:26:00,83.8,66.0,30.06,SE,141,7.0,7.0,55,0.00,,,0.00,weatherlink.com 1.10,2013-10-02 19:26:00,
2013-10-02 15:41:00,83.2,64.0,30.06,WSW,248,0.0,7.0,52,0.00,,,0.00,weatherlink.com 1.10,2013-10-02 19:41:00,
2013-10-02 15:56:00,83.6,64.0,30.06,ESE,108,2.0,8.0,51,0.00,,,0.00,weatherlink.com 1.10,2013-10-02 19:56:00,
2013-10-02 16:11:00,83.1,65.0,30.06,SE,133,1.0,6.0,54,0.00,,,0.00,weatherlink.com 1.10,2013-10-02 20:11:00,
2013-10-02 16:26:00,82.5,65.0,30.06,SSW,206,4.0,5.0,55,0.00,,,0.00,weatherlink.com 1.10,2013-10-02 20:26:00,
2013-10-02 16:41:00,81.6,65.0,30.06,East,92,4.0,6.0,57,0.00,,,0.00,weatherlink.com 1.10,2013-10-02 20:41:00,
2013-10-02 16:56:00,81.2,64.0,30.06,SSW,203,2.0,6.0,57,0.00,,,0.00,weatherlink.com 1.10,2013-10-02 20:56:00,
2013-10-02 17:11:00,80.5,64.0,30.06,SE,133,3.0,7.0,57,0.00,,,0.00,weatherlink.com 1.10,2013-10-02 21:11:00,
2013-10-02 17:26:00,79.6,64.0,30.06,SW,226,2.0,5.0,60,0.00,,,0.00,weatherlink.com 1.10,2013-10-02 21:26:00,
2013-10-02 17:41:00,78.4,64.0,30.07,West,272,0.0,5.0,61,0.00,,,0.00,weatherlink.com 1.10,2013-10-02 21:41:00,
2013-10-02 17:56:00,77.9,64.0,30.07,SSW,202,2.0,4.0,62,0.00,,,0.00,weatherlink.com 1.10,2013-10-02 21:56:00,
2013-10-02 18:11:00,77.2,63.0,30.06,SE,141,1.0,4.0,62,0.00,,,0.00,weatherlink.com 1.10,2013-10-02 22:11:00,
2013-10-02 18:26:00,76.5,63.0,30.07,WSW,251,1.0,1.0,63,0.00,,,0.00,weatherlink.com 1.10,2013-10-02 22:26:00,
2013-10-02 18:41:00,75.6,63.0,30.07,WSW,250,0.0,2.0,65,0.00,,,0.00,weatherlink.com 1.10,2013-10-02 22:41:00,
2013-10-02 18:56:00,74.5,64.0,30.07,WSW,250,0.0,1.0,69,0.00,,,0.00,weatherlink.com 1.10,2013-10-02 22:56:00,
2013-10-02 19:11:00,73.2,63.0,30.07,WSW,250,0.0,0.0,71,0.00,,,0.00,weatherlink.com 1.10,2013-10-02 23:11:00,
2013-10-02 19:26:00,71.9,64.0,30.07,WSW,250,0.0,0.0,75,0.00,,,0.00,weatherlink.com 1.10,2013-10-02 23:26:00,
2013-10-02 19:41:00,70.5,64.0,30.07,WSW,250,0.0,0.0,79,0.00,,,0.00,weatherlink.com 1.10,2013-10-02 23:41:00,
2013-10-02 19:56:00,69.9,64.0,30.08,WSW,249,0.0,0.0,80,0.00,,,0.00,weatherlink.com 1.10,2013-10-02 23:56:00,
2013-10-02 20:11:00,69.4,64.0,30.08,WSW,249,0.0,0.0,83,0.00,,,0.00,weatherlink.com 1.10,2013-10-03 00:11:00,
2013-10-02 20:26:00,68.8,64.0,30.09,WSW,250,0.0,0.0,84,0.00,,,0.00,weatherlink.com 1.10,2013-10-03 00:26:00,
2013-10-02 20:41:00,68.2,64.0,30.09,WSW,250,0.0,0.0,86,0.00,,,0.00,weatherlink.com 1.10,2013-10-03 00:41:00,
2013-10-02 20:56:00,67.3,63.0,30.09,WSW,250,0.0,0.0,86,0.00,,,0.00,weatherlink.com 1.10,2013-10-03 00:56:00,
2013-10-02 21:11:00,67.0,63.0,30.10,WSW,250,0.0,0.0,88,0.00,,,0.00,weatherlink.com 1.10,2013-10-03 01:11:00,
2013-10-02 21:26:00,66.4,63.0,30.10,WSW,250,0.0,0.0,88,0.00,,,0.00,weatherlink.com 1.10,2013-10-03 01:26:00,
2013-10-02 21:41:00,66.2,63.0,30.10,WSW,250,0.0,0.0,90,0.00,,,0.00,weatherlink.com 1.10,2013-10-03 01:41:00,
2013-10-02 21:56:00,66.0,63.0,30.11,WSW,250,0.0,0.0,91,0.00,,,0.00,weatherlink.com 1.10,2013-10-03 01:56:00,
2013-10-02 22:11:00,65.4,63.0,30.11,WSW,250,0.0,0.0,91,0.00,,,0.00,weatherlink.com 1.10,2013-10-03 02:11:00,
2013-10-02 22:26:00,64.8,63.0,30.11,WSW,251,0.0,0.0,92,0.00,,,0.00,weatherlink.com 1.10,2013-10-03 02:26:00,
2013-10-02 22:41:00,64.7,63.0,30.12,WSW,250,0.0,0.0,94,0.00,,,0.00,weatherlink.com 1.10,2013-10-03 02:41:00,
2013-10-02 22:56:00,64.8,63.0,30.12,WSW,250,0.0,0.0,94,0.00,,,0.00,weatherlink.com 1.10,2013-10-03 02:56:00,
2013-10-02 23:11:00,64.5,63.0,30.12,WSW,250,0.0,0.0,94,0.00,,,0.00,weatherlink.com 1.10,2013-10-03 03:11:00,
2013-10-02 23:26:00,64.1,62.0,30.12,WSW,250,0.0,0.0,94,0.00,,,0.00,weatherlink.com 1.10,2013-10-03 03:26:00,
2013-10-02 23:41:00,64.2,63.0,30.12,WSW,250,0.0,0.0,95,0.00,,,0.00,weatherlink.com 1.10,2013-10-03 03:41:00,
2013-10-02 23:56:00,64.1,63.0,30.12,WSW,250,0.0,0.0,95,0.00,,,0.00,weatherlink.com 1.10,2013-10-03 03:56:00,